| time (UTC) | temp F | wind direction | speed MPH | gust MPH | rain 1hr in | rain 24hr in | rain mn in | humidity % | barometer mb |
| 20260502170347 | 50 | 360 | 6.0 | 10.0 | 0.00 | 0.01 | 0.00 | 46 | 1016.1 |
| 20260502164324 | 50 | 360 | 4.0 | 11.0 | 0.00 | 0.01 | 0.00 | 46 | 1016.3 |
| 20260502163832 | 50 | 360 | 5.0 | 10.0 | 0.00 | 0.01 | 0.00 | 46 | 1016.4 |
| 20260502163337 | 50 | 360 | 4.0 | 8.0 | 0.00 | 0.01 | 0.00 | 48 | 1016.3 |
| 20260502162828 | 49 | 360 | 5.0 | 12.0 | 0.00 | 0.01 | 0.00 | 47 | 1016.4 |
| 20260502162337 | 49 | 9 | 7.0 | 12.0 | 0.00 | 0.01 | 0.00 | 46 | 1016.5 |
| 20260502161825 | 48 | 360 | 3.0 | 10.0 | 0.00 | 0.01 | 0.00 | 49 | 1016.4 |
| 20260502161335 | 49 | 360 | 5.0 | 11.0 | 0.00 | 0.01 | 0.00 | 49 | 1016.6 |
| 20260502160823 | 49 | 360 | 7.0 | 12.0 | 0.00 | 0.01 | 0.00 | 50 | 1016.5 |
| 20260502160334 | 49 | 200 | 6.0 | 12.0 | 0.00 | 0.01 | 0.00 | 51 | 1016.7 |
| 20260502152335 | 48 | 360 | 7.0 | 11.0 | 0.00 | 0.01 | 0.00 | 47 | 1016.8 |
| 20260502151823 | 47 | 360 | 5.0 | 11.0 | 0.00 | 0.01 | 0.00 | 50 | 1016.8 |
| 20260502151335 | 47 | 360 | 2.0 | 11.0 | 0.00 | 0.01 | 0.00 | 49 | 1016.8 |
| 20260502150823 | 47 | 360 | 7.0 | 11.0 | 0.00 | 0.01 | 0.00 | 50 | 1016.8 |
| 20260502150333 | 47 | 360 | 1.0 | 9.0 | 0.00 | 0.01 | 0.00 | 48 | 1016.9 |
| 20260502130339 | 39 | 226 | 4.0 | 6.0 | 0.00 | 0.01 | 0.00 | 86 | 1017.0 |
| 20260502123329 | 36 | 360 | 3.0 | 5.0 | 0.00 | 0.01 | 0.00 | 90 | 1017.0 |
| 20260502122837 | 36 | 360 | 2.0 | 4.0 | 0.00 | 0.01 | 0.00 | 90 | 1017.0 |
| 20260502122326 | 36 | 360 | 1.0 | 4.0 | 0.00 | 0.01 | 0.00 | 90 | 1017.0 |
| 20260502121835 | 35 | 360 | 2.0 | 4.0 | 0.00 | 0.01 | 0.00 | 90 | 1017.0 |
| 20260502121325 | 35 | 360 | 2.0 | 3.0 | 0.00 | 0.01 | 0.00 | 90 | 1017.0 |
| 20260502120833 | 35 | 360 | 1.0 | 4.0 | 0.00 | 0.01 | 0.00 | 90 | 1017.0 |
| 20260502120321 | 35 | 360 | 1.0 | 4.0 | 0.00 | 0.01 | 0.00 | 90 | 1016.9 |
| 20260502115826 | 34 | 360 | 2.0 | 4.0 | 0.00 | 0.01 | 0.00 | 90 | 1016.8 |
| 20260502115343 | 34 | 360 | 1.0 | 3.0 | 0.00 | 0.01 | 0.00 | 90 | 1016.8 |
| 20260502114852 | 34 | 360 | 1.0 | 3.0 | 0.00 | 0.01 | 0.00 | 90 | 1016.9 |
| 20260502114341 | 34 | 360 | 1.0 | 3.0 | 0.00 | 0.01 | 0.00 | 90 | 1016.8 |
| 20260502113830 | 33 | 360 | 2.0 | 4.0 | 0.00 | 0.01 | 0.00 | 91 | 1016.8 |
| 20260502113336 | 33 | 360 | 2.0 | 4.0 | 0.00 | 0.01 | 0.00 | 91 | 1016.7 |
| 20260502112823 | 33 | 360 | 2.0 | 3.0 | 0.00 | 0.01 | 0.00 | 91 | 1016.7 |
| 20260502112359 | 33 | 360 | 1.0 | 3.0 | 0.00 | 0.01 | 0.00 | 91 | 1016.6 |
| 20260502111846 | 33 | 360 | 1.0 | 3.0 | 0.00 | 0.01 | 0.00 | 91 | 1016.5 |
| 20260502111357 | 33 | 360 | 1.0 | 3.0 | 0.00 | 0.01 | 0.00 | 91 | 1016.4 |
| 20260502110840 | 33 | 360 | 1.0 | 3.0 | 0.00 | 0.01 | 0.00 | 91 | 1016.4 |
| 20260502110349 | 33 | 360 | 2.0 | 3.0 | 0.00 | 0.01 | 0.00 | 91 | 1016.5 |
| 20260502105838 | 33 | 360 | 1.0 | 3.0 | 0.00 | 0.01 | 0.00 | 91 | 1016.5 |
| 20260502105329 | 33 | 360 | 1.0 | 3.0 | 0.00 | 0.01 | 0.00 | 91 | 1016.5 |
| 20260502104836 | 33 | 360 | 2.0 | 3.0 | 0.00 | 0.01 | 0.00 | 91 | 1016.6 |
| 20260502104325 | 33 | 360 | 1.0 | 4.0 | 0.00 | 0.01 | 0.00 | 91 | 1016.6 |
| 20260502103833 | 33 | 360 | 2.0 | 4.0 | 0.00 | 0.01 | 0.01 | 91 | 1016.5 |
| 20260502103323 | 33 | 360 | 2.0 | 3.0 | 0.00 | 0.01 | 0.01 | 91 | 1016.5 |
| 20260502102833 | 33 | 360 | 2.0 | 3.0 | 0.00 | 0.01 | 0.01 | 91 | 1016.3 |
| 20260502102324 | 33 | 360 | 2.0 | 3.0 | 0.00 | 0.01 | 0.01 | 91 | 1016.4 |
| 20260502101834 | 33 | 223 | 2.0 | 3.0 | 0.00 | 0.01 | 0.01 | 91 | 1016.4 |
| 20260502101325 | 33 | 223 | 2.0 | 3.0 | 0.00 | 0.01 | 0.01 | 91 | 1016.4 |
| 20260502100830 | 33 | 360 | 2.0 | 3.0 | 0.00 | 0.01 | 0.01 | 91 | 1016.4 |
| 20260502100341 | 33 | 360 | 2.0 | 3.0 | 0.00 | 0.01 | 0.01 | 91 | 1016.5 |
| 20260502091334 | 33 | 360 | 2.0 | 3.0 | 0.00 | 0.01 | 0.01 | 90 | 1016.5 |
| 20260502090840 | 33 | 360 | 2.0 | 2.0 | 0.00 | 0.01 | 0.01 | 90 | 1016.4 |
| 20260502090330 | 33 | 360 | 1.0 | 2.0 | 0.00 | 0.01 | 0.01 | 90 | 1016.3 |
| 20260502071344 | 35 | 360 | 2.0 | 4.0 | 0.00 | 0.03 | 0.01 | 84 | 1016.4 |
| 20260502070831 | 35 | 360 | 2.0 | 4.0 | 0.00 | 0.03 | 0.01 | 83 | 1016.3 |
| 20260502070334 | 35 | 360 | 3.0 | 4.0 | 0.00 | 0.03 | 0.01 | 83 | 1016.3 |
| 20260502065844 | 35 | 184 | 2.0 | 5.0 | 0.00 | 0.03 | 0.01 | 82 | 1016.3 |
| 20260502065334 | 35 | 360 | 2.0 | 5.0 | 0.00 | 0.03 | 0.01 | 81 | 1016.4 |
| 20260502064844 | 35 | 360 | 2.0 | 5.0 | 0.00 | 0.03 | 0.01 | 82 | 1016.4 |
| 20260502064356 | 35 | 360 | 3.0 | 5.0 | 0.00 | 0.03 | 0.01 | 82 | 1016.4 |
| 20260502063843 | 34 | 360 | 2.0 | 4.0 | 0.00 | 0.03 | 0.01 | 83 | 1016.5 |
| 20260502063333 | 34 | 360 | 2.0 | 3.0 | 0.00 | 0.03 | 0.01 | 83 | 1016.5 |
| 20260502062822 | 34 | 360 | 2.0 | 3.0 | 0.00 | 0.03 | 0.01 | 84 | 1016.6 |
| 20260502062332 | 34 | 360 | 2.0 | 3.0 | 0.00 | 0.03 | 0.01 | 84 | 1016.6 |
| 20260502061908 | 34 | 360 | 1.0 | 2.0 | 0.00 | 0.03 | 0.01 | 84 | 1016.6 |
| 20260502061358 | 34 | 360 | 0.0 | 2.0 | 0.00 | 0.03 | 0.01 | 84 | 1016.6 |
| 20260502060845 | 34 | 360 | 1.0 | 3.0 | 0.00 | 0.03 | 0.01 | 84 | 1016.6 |
| 20260502060356 | 34 | 360 | 1.0 | 3.0 | 0.00 | 0.03 | 0.01 | 84 | 1016.6 |
| 20260502055824 | 34 | 360 | 2.0 | 4.0 | 0.00 | 0.03 | 0.01 | 84 | 1016.6 |
| 20260502055333 | 35 | 360 | 3.0 | 4.0 | 0.00 | 0.03 | 0.01 | 83 | 1016.6 |
| 20260502054822 | 35 | 360 | 3.0 | 4.0 | 0.00 | 0.03 | 0.01 | 82 | 1016.6 |
| 20260502054334 | 35 | 360 | 2.0 | 2.0 | 0.00 | 0.03 | 0.01 | 81 | 1016.7 |
| 20260502053823 | 35 | 360 | 1.0 | 3.0 | 0.00 | 0.03 | 0.01 | 81 | 1016.8 |
| 20260502053333 | 35 | 360 | 1.0 | 4.0 | 0.00 | 0.03 | 0.01 | 81 | 1016.8 |
| 20260502052844 | 35 | 360 | 3.0 | 4.0 | 0.00 | 0.03 | 0.01 | 81 | 1016.7 |
| 20260502052357 | 36 | 360 | 0.0 | 0.0 | 0.00 | 0.03 | 0.01 | 80 | 1016.6 |
| 20260502051825 | 36 | 360 | 0.0 | 0.0 | 0.00 | 0.03 | 0.01 | 80 | 1016.7 |
| 20260502051334 | 36 | 360 | 0.0 | 0.0 | 0.00 | 0.03 | 0.01 | 80 | 1016.6 |
| 20260502050839 | 36 | 360 | 0.0 | 0.0 | 0.00 | 0.03 | 0.01 | 79 | 1016.6 |
| 20260502050347 | 35 | 360 | 0.0 | 0.0 | 0.00 | 0.03 | 0.01 | 78 | 1016.7 |
| 20260502045830 | 35 | 360 | 0.0 | 0.0 | 0.00 | 0.03 | 0.01 | 78 | 1016.6 |
| 20260502045338 | 35 | 360 | 0.0 | 0.0 | 0.00 | 0.05 | 0.01 | 78 | 1016.5 |
| 20260502044828 | 36 | 360 | 0.0 | 0.0 | 0.00 | 0.05 | 0.01 | 78 | 1016.5 |
| 20260502044337 | 36 | 360 | 0.0 | 0.0 | 0.00 | 0.05 | 0.01 | 78 | 1016.4 |
| 20260502043826 | 36 | 360 | 0.0 | 0.0 | 0.00 | 0.05 | 0.01 | 77 | 1016.5 |
| 20260502043335 | 36 | 360 | 0.0 | 0.0 | 0.00 | 0.05 | 0.01 | 78 | 1016.3 |
| 20260502042823 | 36 | 360 | 0.0 | 0.0 | 0.00 | 0.05 | 0.01 | 78 | 1016.3 |
| 20260502042333 | 36 | 360 | 0.0 | 0.0 | 0.00 | 0.05 | 0.01 | 78 | 1016.3 |
| 20260502041823 | 36 | 360 | 0.0 | 0.0 | 0.00 | 0.05 | 0.01 | 78 | 1016.4 |
| 20260502041335 | 36 | 360 | 0.0 | 0.0 | 0.00 | 0.05 | 0.01 | 78 | 1016.4 |
| 20260502040822 | 36 | 360 | 0.0 | 0.0 | 0.00 | 0.05 | 0.01 | 78 | 1016.4 |
| 20260502040332 | 36 | 360 | 0.0 | 0.0 | 0.00 | 0.05 | 0.01 | 77 | 1016.4 |
| 20260502035840 | 36 | 360 | 0.0 | 0.0 | 0.00 | 0.05 | 0.01 | 76 | 1016.4 |
| 20260502035328 | 36 | 360 | 0.0 | 1.0 | 0.00 | 0.05 | 0.01 | 75 | 1016.4 |
| 20260502034835 | 36 | 360 | 0.0 | 1.0 | 0.00 | 0.05 | 0.01 | 75 | 1016.3 |
| 20260502034326 | 36 | 360 | 0.0 | 1.0 | 0.00 | 0.05 | 0.01 | 75 | 1016.3 |
| 20260502033834 | 36 | 360 | 0.0 | 1.0 | 0.00 | 0.05 | 0.01 | 75 | 1016.4 |
| 20260502033344 | 36 | 360 | 0.0 | 1.0 | 0.00 | 0.05 | 0.01 | 75 | 1016.3 |
| 20260502032832 | 36 | 360 | 0.0 | 0.0 | 0.00 | 0.05 | 0.01 | 75 | 1016.3 |
| 20260502032323 | 36 | 360 | 0.0 | 0.0 | 0.00 | 0.05 | 0.01 | 74 | 1016.3 |
| 20260502031832 | 36 | 360 | 0.0 | 0.0 | 0.00 | 0.05 | 0.01 | 74 | 1016.3 |
| 20260502031341 | 36 | 360 | 0.0 | 0.0 | 0.00 | 0.05 | 0.01 | 74 | 1016.4 |
| 20260502030827 | 36 | 360 | 0.0 | 0.0 | 0.00 | 0.05 | 0.01 | 74 | 1016.4 |
| 20260502030333 | 36 | 360 | 0.0 | 0.0 | 0.00 | 0.05 | 0.01 | 73 | 1016.4 |
| 20260502025824 | 36 | 360 | 0.0 | 0.0 | 0.00 | 0.05 | 0.01 | 73 | 1016.4 |
| 20260502025332 | 36 | 360 | 0.0 | 0.0 | 0.00 | 0.06 | 0.01 | 73 | 1016.3 |
| 20260502024823 | 36 | 360 | 0.0 | 0.0 | 0.00 | 0.06 | 0.01 | 73 | 1016.2 |
| 20260502024332 | 36 | 360 | 0.0 | 0.0 | 0.00 | 0.06 | 0.01 | 73 | 1016.3 |
| 20260502023840 | 36 | 360 | 0.0 | 0.0 | 0.00 | 0.06 | 0.01 | 73 | 1016.3 |
| 20260502023328 | 36 | 360 | 0.0 | 0.0 | 0.00 | 0.06 | 0.01 | 74 | 1016.2 |
| 20260502022833 | 37 | 360 | 0.0 | 0.0 | 0.00 | 0.06 | 0.01 | 74 | 1016.2 |
| 20260502022321 | 37 | 360 | 0.0 | 0.0 | 0.00 | 0.06 | 0.01 | 74 | 1016.1 |
| 20260502021830 | 37 | 360 | 0.0 | 0.0 | 0.00 | 0.06 | 0.01 | 73 | 1016.0 |
| 20260502021405 | 37 | 360 | 0.0 | 0.0 | 0.00 | 0.06 | 0.01 | 73 | 1016.1 |
| 20260502020851 | 37 | 360 | 0.0 | 0.0 | 0.00 | 0.06 | 0.01 | 73 | 1016.1 |
| 20260502020339 | 37 | 360 | 0.0 | 0.0 | 0.00 | 0.06 | 0.01 | 73 | 1016.0 |
| 20260502015827 | 37 | 360 | 0.0 | 2.0 | 0.00 | 0.06 | 0.01 | 72 | 1016.0 |
| 20260502015338 | 38 | 360 | 1.0 | 2.0 | 0.00 | 0.07 | 0.01 | 71 | 1015.9 |
| 20260502014829 | 38 | 360 | 0.0 | 3.0 | 0.00 | 0.07 | 0.01 | 70 | 1015.8 |
| 20260502014340 | 38 | 360 | 1.0 | 4.0 | 0.00 | 0.07 | 0.01 | 70 | 1015.7 |
| 20260502013827 | 38 | 360 | 2.0 | 4.0 | 0.00 | 0.07 | 0.01 | 69 | 1015.6 |
| 20260502013337 | 38 | 360 | 2.0 | 4.0 | 0.00 | 0.07 | 0.01 | 69 | 1015.7 |
| 20260502012844 | 38 | 360 | 2.0 | 4.0 | 0.00 | 0.07 | 0.01 | 69 | 1015.6 |
| 20260502012332 | 39 | 360 | 2.0 | 4.0 | 0.00 | 0.07 | 0.01 | 69 | 1015.6 |
| 20260502011822 | 39 | 360 | 1.0 | 4.0 | 0.00 | 0.07 | 0.01 | 68 | 1015.5 |
| 20260502011357 | 39 | 360 | 2.0 | 5.0 | 0.00 | 0.07 | 0.01 | 68 | 1015.6 |
| 20260502010823 | 39 | 360 | 3.0 | 6.0 | 0.00 | 0.07 | 0.01 | 67 | 1015.6 |
| 20260502010328 | 39 | 360 | 1.0 | 7.0 | 0.00 | 0.07 | 0.01 | 67 | 1015.5 |
| 20260502005837 | 39 | 360 | 2.0 | 7.0 | 0.00 | 0.07 | 0.01 | 66 | 1015.6 |
| 20260502005326 | 40 | 360 | 4.0 | 7.0 | 0.00 | 0.07 | 0.01 | 67 | 1015.4 |
| 20260502004836 | 40 | 360 | 2.0 | 5.0 | 0.00 | 0.07 | 0.01 | 68 | 1015.4 |
| 20260502004345 | 40 | 360 | 2.0 | 6.0 | 0.00 | 0.07 | 0.01 | 68 | 1015.4 |
| 20260502003850 | 40 | 360 | 4.0 | 6.0 | 0.00 | 0.07 | 0.01 | 68 | 1015.5 |
| 20260502003337 | 40 | 360 | 3.0 | 6.0 | 0.00 | 0.07 | 0.01 | 68 | 1015.5 |
| 20260502002827 | 40 | 360 | 3.0 | 6.0 | 0.00 | 0.07 | 0.01 | 68 | 1015.4 |
| 20260502002337 | 40 | 360 | 3.0 | 7.0 | 0.00 | 0.07 | 0.01 | 68 | 1015.4 |
| 20260502001827 | 40 | 360 | 3.0 | 7.0 | 0.00 | 0.07 | 0.01 | 67 | 1015.5 |
| 20260502001338 | 40 | 360 | 4.0 | 9.0 | 0.00 | 0.07 | 0.01 | 67 | 1015.5 |
| 20260502000829 | 40 | 360 | 5.0 | 9.0 | 0.00 | 0.07 | 0.01 | 67 | 1015.4 |
| 20260502000339 | 40 | 360 | 5.0 | 8.0 | 0.00 | 0.07 | 0.01 | 66 | 1015.4 |
| 20260501235824 | 40 | 360 | 5.0 | 8.0 | 0.00 | 0.07 | 0.01 | 68 | 1015.3 |
| 20260501235337 | 40 | 360 | 4.0 | 5.0 | 0.00 | 0.07 | 0.01 | 71 | 1015.2 |
| 20260501234825 | 40 | 360 | 0.0 | 6.0 | 0.00 | 0.07 | 0.01 | 73 | 1015.2 |
| 20260501234336 | 40 | 360 | 3.0 | 7.0 | 0.00 | 0.07 | 0.01 | 74 | 1015.2 |
| 20260501233844 | 40 | 360 | 3.0 | 7.0 | 0.00 | 0.07 | 0.01 | 74 | 1015.2 |
| 20260501233349 | 40 | 360 | 3.0 | 6.0 | 0.00 | 0.07 | 0.01 | 78 | 1015.2 |
| 20260501232838 | 40 | 360 | 3.0 | 5.0 | 0.00 | 0.07 | 0.01 | 79 | 1015.1 |
| 20260501232348 | 40 | 360 | 1.0 | 5.0 | 0.01 | 0.07 | 0.01 | 80 | 1015.2 |
| 20260501231837 | 40 | 360 | 2.0 | 5.0 | 0.01 | 0.07 | 0.01 | 81 | 1015.2 |
| 20260501231349 | 40 | 360 | 1.0 | 5.0 | 0.01 | 0.07 | 0.01 | 81 | 1015.1 |
| 20260501230838 | 40 | 360 | 1.0 | 5.0 | 0.01 | 0.07 | 0.01 | 81 | 1015.2 |
| 20260501230347 | 40 | 360 | 2.0 | 5.0 | 0.01 | 0.07 | 0.01 | 81 | 1015.2 |
| 20260501225853 | 40 | 360 | 2.0 | 5.0 | 0.01 | 0.07 | 0.01 | 82 | 1015.1 |
| 20260501225343 | 40 | 360 | 1.0 | 6.0 | 0.01 | 0.07 | 0.01 | 82 | 1015.1 |
| 20260501224831 | 40 | 360 | 2.0 | 7.0 | 0.01 | 0.07 | 0.01 | 81 | 1015.1 |
| 20260501224323 | 40 | 360 | 3.0 | 7.0 | 0.01 | 0.07 | 0.01 | 80 | 1015.1 |
| 20260501223900 | 41 | 360 | 5.0 | 7.0 | 0.01 | 0.07 | 0.01 | 79 | 1015.1 |
| 20260501223349 | 41 | 360 | 2.0 | 6.0 | 0.01 | 0.07 | 0.01 | 77 | 1015.1 |
| 20260501222835 | 42 | 360 | 1.0 | 10.0 | 0.01 | 0.07 | 0.01 | 75 | 1015.2 |
| 20260501222328 | 42 | 360 | 5.0 | 10.0 | 0.00 | 0.06 | 0.00 | 71 | 1015.2 |
| 20260501221836 | 43 | 360 | 4.0 | 9.0 | 0.00 | 0.06 | 0.00 | 70 | 1015.1 |
| 20260501221324 | 43 | 360 | 5.0 | 9.0 | 0.00 | 0.06 | 0.00 | 69 | 1015.0 |
| 20260501220857 | 43 | 360 | 1.0 | 7.0 | 0.00 | 0.06 | 0.00 | 69 | 1014.9 |
| 20260501220344 | 43 | 360 | 3.0 | 7.0 | 0.00 | 0.06 | 0.00 | 68 | 1014.9 |
| 20260501215850 | 43 | 360 | 2.0 | 7.0 | 0.00 | 0.06 | 0.00 | 70 | 1014.8 |
| 20260501215338 | 43 | 360 | 4.0 | 8.0 | 0.00 | 0.06 | 0.00 | 69 | 1014.7 |
| 20260501214827 | 44 | 360 | 3.0 | 7.0 | 0.00 | 0.06 | 0.00 | 69 | 1014.7 |
| 20260501214339 | 44 | 360 | 2.0 | 7.0 | 0.00 | 0.06 | 0.00 | 69 | 1014.7 |
| 20260501213846 | 44 | 360 | 4.0 | 7.0 | 0.00 | 0.06 | 0.00 | 70 | 1014.7 |
| 20260501213356 | 44 | 360 | 2.0 | 8.0 | 0.00 | 0.06 | 0.00 | 70 | 1014.7 |
| 20260501212826 | 44 | 360 | 1.0 | 8.0 | 0.00 | 0.06 | 0.00 | 71 | 1014.7 |
| 20260501212336 | 44 | 360 | 3.0 | 9.0 | 0.00 | 0.06 | 0.00 | 71 | 1014.8 |
| 20260501211824 | 44 | 360 | 3.0 | 9.0 | 0.00 | 0.06 | 0.00 | 72 | 1014.7 |
| 20260501211333 | 44 | 360 | 2.0 | 5.0 | 0.00 | 0.06 | 0.00 | 76 | 1014.7 |
| 20260501210821 | 43 | 360 | 2.0 | 6.0 | 0.00 | 0.06 | 0.00 | 78 | 1014.7 |
| 20260501210354 | 43 | 360 | 3.0 | 7.0 | 0.00 | 0.06 | 0.00 | 79 | 1014.7 |
| 20260501205842 | 42 | 360 | 1.0 | 7.0 | 0.00 | 0.06 | 0.00 | 79 | 1014.8 |
| 20260501205331 | 42 | 360 | 3.0 | 8.0 | 0.00 | 0.06 | 0.00 | 79 | 1014.7 |
| 20260501204840 | 42 | 360 | 4.0 | 8.0 | 0.00 | 0.06 | 0.00 | 78 | 1014.7 |
| 20260501204331 | 42 | 360 | 5.0 | 9.0 | 0.00 | 0.06 | 0.00 | 78 | 1014.7 |
| 20260501203838 | 42 | 360 | 5.0 | 10.0 | 0.00 | 0.06 | 0.00 | 79 | 1014.8 |
| 20260501203330 | 42 | 360 | 2.0 | 11.0 | 0.00 | 0.06 | 0.00 | 78 | 1014.8 |
| 20260501202838 | 42 | 360 | 4.0 | 11.0 | 0.00 | 0.06 | 0.00 | 77 | 1014.9 |
| 20260501202327 | 42 | 360 | 5.0 | 9.0 | 0.00 | 0.06 | 0.00 | 77 | 1014.9 |
| 20260501201834 | 43 | 360 | 4.0 | 9.0 | 0.00 | 0.06 | 0.00 | 76 | 1014.8 |
| 20260501201323 | 43 | 360 | 5.0 | 11.0 | 0.00 | 0.06 | 0.00 | 76 | 1014.8 |
| 20260501200829 | 43 | 360 | 4.0 | 11.0 | 0.00 | 0.06 | 0.00 | 77 | 1014.7 |
| 20260501200338 | 43 | 360 | 4.0 | 10.0 | 0.00 | 0.06 | 0.00 | 77 | 1014.7 |
| 20260501195849 | 43 | 360 | 5.0 | 10.0 | 0.00 | 0.06 | 0.00 | 76 | 1014.8 |
| 20260501195358 | 43 | 360 | 4.0 | 10.0 | 0.00 | 0.06 | 0.00 | 77 | 1014.7 |
| 20260501194827 | 43 | 360 | 5.0 | 9.0 | 0.00 | 0.06 | 0.00 | 77 | 1014.6 |
| 20260501194339 | 43 | 360 | 3.0 | 15.0 | 0.00 | 0.06 | 0.00 | 77 | 1014.7 |
| 20260501193828 | 43 | 360 | 6.0 | 10.0 | 0.00 | 0.06 | 0.00 | 78 | 1014.7 |
| 20260501193400 | 43 | 360 | 7.0 | 10.0 | 0.00 | 0.06 | 0.00 | 80 | 1014.6 |
| 20260501192849 | 42 | 360 | 6.0 | 10.0 | 0.00 | 0.06 | 0.00 | 80 | 1014.6 |
| 20260501192337 | 42 | 360 | 6.0 | 10.0 | 0.00 | 0.06 | 0.00 | 80 | 1014.5 |
| 20260501191827 | 42 | 360 | 6.0 | 10.0 | 0.00 | 0.06 | 0.00 | 79 | 1014.4 |
| 20260501191338 | 43 | 360 | 8.0 | 12.0 | 0.00 | 0.06 | 0.00 | 79 | 1014.4 |
| 20260501190843 | 43 | 360 | 5.0 | 12.0 | 0.00 | 0.06 | 0.00 | 79 | 1014.4 |
| 20260501190353 | 43 | 360 | 5.0 | 10.0 | 0.00 | 0.06 | 0.00 | 78 | 1014.4 |
| 20260501185822 | 43 | 360 | 4.0 | 10.0 | 0.00 | 0.06 | 0.00 | 78 | 1014.3 |
| 20260501185331 | 43 | 76 | 7.0 | 10.0 | 0.00 | 0.06 | 0.00 | 78 | 1014.2 |
| 20260501184822 | 43 | 360 | 5.0 | 12.0 | 0.00 | 0.06 | 0.00 | 78 | 1014.3 |
| 20260501184333 | 43 | 360 | 6.0 | 12.0 | 0.00 | 0.06 | 0.00 | 78 | 1014.3 |
| 20260501183907 | 43 | 360 | 7.0 | 12.0 | 0.00 | 0.06 | 0.00 | 78 | 1014.2 |
| 20260501183355 | 43 | 360 | 7.0 | 13.0 | 0.00 | 0.06 | 0.00 | 76 | 1014.1 |
| 20260501182844 | 43 | 360 | 8.0 | 14.0 | 0.00 | 0.06 | 0.00 | 76 | 1014.1 |
| 20260501182356 | 44 | 360 | 9.0 | 14.0 | 0.00 | 0.06 | 0.00 | 76 | 1014.1 |
| 20260501181825 | 44 | 360 | 5.0 | 12.0 | 0.00 | 0.06 | 0.00 | 75 | 1014.0 |
| 20260501181404 | 44 | 360 | 8.0 | 13.0 | 0.00 | 0.06 | 0.00 | 74 | 1013.9 |
| 20260501180853 | 44 | 360 | 9.0 | 13.0 | 0.00 | 0.06 | 0.00 | 74 | 1014.0 |
| 20260501180322 | 44 | 360 | 5.0 | 10.0 | 0.00 | 0.06 | 0.00 | 73 | 1014.0 |
| 20260501175830 | 44 | 360 | 4.0 | 9.0 | 0.00 | 0.06 | 0.00 | 75 | 1013.8 |